STARLINK-36966, 68044

Orbit data source: Space-Track

STARLINK-36966, 68044 is a payload satellite owned by SpaceX/Seattle (US) in LEO that was launched on Mon, 02 Mar 2026 UTC via an FALCON 9 launch vehicle from the Air Force Eastern Test Range (AFETR). Payload-class satellites include a variety of spacecraft equipped with specific instruments for various scientific and technological missions. These include communications satellites like Starlink; space stations such as the ISS; scientific satellites like the Hubble; Earth observation satellites from companies like Planet Labs, Umbra, and HawkEye 360; GPS; miniature CubeSats for education and research; and military/defense satellites.

Loading next visibility...
Identifier
68044, 2026-041E
Orbit
LEO
Country
Flag of USUS
Related business
Manufacturer
SpaceX/Seattle
Mission
Operational Commercial Communications
Bus & Motor
STARLINK V2MO, Unknown motor
Mass
575 kg wet, ~530 kg dry
Launch date (UTC)
2026-03-02 (4 months ago)
Launch vehicle
FALCON 9
Launch site
Air Force Eastern Test Range (AFETR)
Object type
Payload
Rocket body
Debris
Shape & HBR
Box + 2 Pan, 17.7 m
Radar Cross Section
36.964 m², Large (>1 m²)

Expand to show TLE details & history
Last TLE update: 1 day ago

TLE from 1 day ago
0 STARLINK-36966
1 68044U 26041E   26170.63322783  .00024956  00000-0  74703-3 0  9995
2 68044  53.1590 293.7212 0001187  85.7069 274.4069 15.34410131 17031
Epoch: 2026-06-19T15:11Z
TLE epoch observation values (Epoch: 2026-06-19T15:11:50.884Z)
Latitude
-0.00004°
Longitude
157.89975°
Altitude
463.512 km
Speed
7.636 km/s
True Right ascension
19h 34m 53s
True Declination
0° 00' 00"
Sunlit
Object was in full shadow at epoch
Visualization orbit readout
Latitude
Unknown
Longitude
Unknown
Altitude
Unknown
Speed
Unknown
Apparent Right ascension
Unknown
Apparent Declination
Unknown
Sunlit
N/A
Visualization observer readout
Local Sidereal Time
07:18:50
Azimuth
Unknown
Elevation
Unknown
Doppler factor
Unknown
Orbital elements
Apogee altitude
463.742 km
Perigee altitude
462.118 km
Semi-major axis
6,841.067 km
Eccentricity
0.00012
Inclination
53.159°
RAAN
293.7212°
Arg. of periapsis
85.7069°
True anomaly
274.39334°
Mean anomaly
274.4069°
Eccentric anomaly
274.40012°
Mean motion
3.83581 °/min
Orbital period
93.85 mins
BSTAR
0.00074703
Loading maneuver chart data...
Computing Atmospheric mass density...
Loading historical data...
Loading historical data...
Loading historical data...
Loading historical data...
Loading historical data...
Loading historical data...
Loading historical data...

Documentation

Showing up to 5 results
|